This demonstration page uses our WeatherBlox Daily Observations layout. Learn more.

Hourly Observations for July 16, 2018

Temp ( °F °C ) Dew Point ( °F °C ) Humidity (%) Winds ( mph kmh ) Pressure ( in mb ) Visibility ( mi km ) Precip ( " mm )
12:15 am 00:15 Clear 70 21.3 68 20 92 92 NNE 7 11 30.03 1017 10 16.0934 0 0
12:35 am 00:35 Clear 70 21.1 68 20 93 93 NE 7 11 30.03 1017 10 16.0934 0 0
12:55 am 00:55 Clear 70 21 67 19.7 92 92 NNE 5 7 30.03 1017 10 16.0934 0 0
1:15 am 01:15 Clear 69 20.8 67 19.5 92 92 NNE 3 6 30.03 1017 10 16.0934 0 0
1:35 am 01:35 Clear 69 20.6 67 19.5 93 93 N 6 9 30.06 1018 10 16.0934 0 0
1:55 am 01:55 Clear 68 20.1 67 19.2 95 95 N 6 9 30.06 1018 10 16.0934 0 0
2:15 am 02:15 Clear 68 20.1 66 19 93 93 NNE 6 9 30.06 1018 10 16.0934 0 0
2:35 am 02:35 Clear 68 19.8 66 19 95 95 NNE 5 7 30.06 1018 10 16.0934 0 0
2:55 am 02:55 Clear 67 19.6 66 18.7 95 95 NNE 6 9 30.06 1018 10 16.0934 0 0
3:15 am 03:15 Clear 67 19.2 65 18.5 96 96 NNE 3 6 30.06 1018 10 16.0934 0 0
3:35 am 03:35 Mostly Cloudy 66 19 65 18.5 97 97 NNE 5 7 30.06 1018 10 16.0934 0 0
3:55 am 03:55 Partly Cloudy 65 18.6 65 18.5 99 99 NNE 5 7 30.03 1017 10 16.0934 0 0
4:15 am 04:15 Clear 65 18.5 65 18.3 99 99 N 6 9 30.03 1017 10 16.0934 0 0
4:35 am 04:35 Clear 65 18.2 65 18.1 99 99 NNE 6 9 30.03 1017 10 16.0934 0 0
4:55 am 04:55 Clear 64 17.9 64 17.8 99 99 NNE 6 9 30.06 1018 10 16.0934 0 0
5:15 am 05:15 Partly Cloudy 64 17.5 63 17.4 99 99 NNE 5 7 30.06 1018 10 16.0934 0 0
5:35 am 05:35 Mostly Cloudy 63 17.3 63 17.1 99 99 N 6 9 30.06 1018 10 16.0934 0 0
5:55 am 05:55 Partly Cloudy 63 17.1 63 17.1 100 100 NNE 6 9 30.09 1019 10 16.0934 0 0
6:15 am 06:15 Partly Cloudy 63 17 63 17 100 100 N 5 7 30.09 1019 10 16.0934 0 0
6:35 am 06:35 Sunny 63 17 63 17 100 100 N 6 9 30.09 1019 10 16.0934 0 0
6:55 am 06:55 Mostly Cloudy 63 17.2 63 17 99 99 NNE 6 9 30.06 1018 10 16.0934 0 0
7:15 am 07:15 Cloudy 63 17.3 63 17 98 98 NNE 5 7 30.06 1018 10 16.0934 0 0
7:35 am 07:35 Cloudy 64 17.7 63 17.2 97 97 NNE 7 11 30.06 1018 10 16.0934 0 0
7:55 am 07:55 Mostly Cloudy 64 18 63 17.2 95 95 NNE 7 11 30.06 1018 10 16.0934 0 0
8:15 am 08:15 Partly Cloudy 64 17.8 63 17.2 96 96 NNE 5 7 30.06 1018 10 16.0934 0 0
8:35 am 08:35 Partly Cloudy 65 18.6 64 17.7 95 95 N 6 9 30.06 1018 10 16.0934 0 0
8:55 am 08:55 Partly Cloudy 67 19.7 65 18.5 93 93 NNE 6 9 30.06 1018 10 16.0934 0 0
9:15 am 09:15 Mostly Cloudy 69 20.5 66 18.8 90 90 NE 7 11 30.06 1018 10 16.0934 0 0
9:35 am 09:35 Cloudy 69 20.5 66 18.8 90 90 NE 7 11 30.06 1018 10 16.0934 0 0
9:55 am 09:55 Cloudy 69 20.8 67 19.2 91 91 ENE 5 7 30.03 1017 10 16.0934 0 0
10:15 am 10:15 Mostly Cloudy 71 21.8 68 20.1 90 90 NE 6 9 30.03 1017 10 16.0934 0 0
10:35 am 10:35 Partly Cloudy 73 22.6 69 20.3 87 87 N 6 9 30.03 1017 10 16.0934 0 0
10:55 am 10:55 Partly Cloudy 74 23.4 70 20.9 86 86 N 7 11 30.03 1017 10 16.0934 0 0
11:15 am 11:15 Partly Cloudy 75 23.9 71 21.5 86 86 NNE 8 13 30.03 1017 10 16.0934 0 0
11:35 am 11:35 Sunny 76 24.5 71 21.9 85 85 NE 7 11 30 1016 10 16.0934 0 0
11:55 am 11:55 Partly Cloudy 77 24.9 72 22 84 84 N 7 11 30 1016 10 16.0934 0 0
12:15 pm 12:15 Partly Cloudy 78 25.3 73 22.5 85 85 E 8 13 30 1016 10 16.0934 0 0
12:35 pm 12:35 Partly Cloudy 78 25.5 73 22.5 84 84 ENE 6 9 30 1016 10 16.0934 0 0
12:55 pm 12:55 Partly Cloudy 79 26 74 23.1 84 84 ENE 6 9 30 1016 10 16.0934 0 0
1:15 pm 13:15 Partly Cloudy 79 25.9 73 22.7 83 83 E 5 7 30 1016 10 16.0934 0 0
1:35 pm 13:35 Mostly Cloudy 80 26.5 73 23 81 81 E 6 9 30 1016 10 16.0934 0 0
1:55 pm 13:55 Mostly Cloudy 80 26.7 74 23.2 81 81 NE 5 7 30 1016 10 16.0934 0 0
2:15 pm 14:15 Mostly Cloudy 80 26.8 73 22.7 78 78 E 5 7 30 1016 10 16.0934 0 0
2:35 pm 14:35 Mostly Cloudy 81 27.3 73 22.7 76 76 E 6 9 30 1016 10 16.0934 0 0
2:55 pm 14:55 Mostly Cloudy 82 28 73 23 74 74 E 6 9 30 1016 10 16.0934 0 0
3:15 pm 15:15 Mostly Cloudy 83 28.1 73 22.8 73 73 E 7 11 29.97 1015 10 16.0934 0 0
3:35 pm 15:35 Mostly Cloudy 83 28.4 72 22.4 70 70 E 5 7 29.94 1014 10 16.0934 0 0
3:55 pm 15:55 Mostly Cloudy 84 28.7 73 22.7 70 70 ENE 7 11 29.94 1014 10 16.0934 0 0
4:15 pm 16:15 Partly Cloudy 84 28.9 71 21.9 66 66 SE 5 7 29.94 1014 10 16.0934 0 0
4:35 pm 16:35 Sunny 83 28.4 72 22.3 70 70 ESE 5 7 29.94 1014 10 16.0934 0 0
4:55 pm 16:55 Sunny 85 29.2 72 22.3 66 66 E 7 11 29.94 1014 10 16.0934 0 0
5:15 pm 17:15 Partly Cloudy 84 28.7 72 22.2 68 68 E 6 9 29.94 1014 10 16.0934 0 0
5:35 pm 17:35 Partly Cloudy 83 28.6 71 21.9 67 67 ESE 7 11 29.94 1014 10 16.0934 0 0
5:55 pm 17:55 Partly Cloudy 84 28.7 72 22.2 68 68 SE 6 9 29.91 1013 10 16.0934 0 0
6:15 pm 18:15 Mostly Cloudy 85 29.2 73 22.5 67 67 ESE 7 11 29.91 1013 10 16.0934 0 0
6:35 pm 18:35 Mostly Cloudy 84 28.7 73 22.6 70 70 ESE 7 11 29.91 1013 10 16.0934 0 0
6:55 pm 18:55 Sunny 84 28.7 73 22.7 70 70 ESE 9 15 29.91 1013 10 16.0934 0 0
7:15 pm 19:15 Sunny 83 28.1 72 22.4 71 71 ESE 9 15 29.91 1013 10 16.0934 0 0
7:35 pm 19:35 Sunny 82 28 73 22.6 73 73 ESE 6 9 29.91 1013 10 16.0934 0 0
7:55 pm 19:55 Sunny 82 27.8 73 23 75 75 ESE 5 7 29.91 1013 10 16.0934 0 0
8:15 pm 20:15 Sunny 81 27 74 23.1 79 79 E 5 7 29.94 1014 10 16.0934 0 0
8:35 pm 20:35 Sunny 79 26.2 74 23.3 84 84 E 6 9 29.94 1014 10 16.0934 0 0
8:55 pm 20:55 Sunny 78 25.6 74 23.1 86 86 E 3 6 29.94 1014 10 16.0934 0 0
9:15 pm 21:15 Clear 76 24.6 74 23.5 94 94 E 6 9 29.94 1014 10 16.0934 0 0
9:35 pm 21:35 Clear 76 24.6 74 23.1 91 91 E 7 11 29.97 1015 10 16.0934 0 0
9:55 pm 21:55 Clear 75 23.8 73 22.7 94 94 ESE 7 11 29.94 1014 10 16.0934 0 0
10:15 pm 22:15 Clear 74 23.2 73 22.5 96 96 ESE 7 11 30 1016 10 16.0934 0 0
10:35 pm 22:35 Clear 74 23.3 73 22.5 95 95 ESE 6 9 30 1016 10 16.0934 0 0
10:55 pm 22:55 Clear 73 23 72 22.2 95 95 SE 7 11 30 1016 10 16.0934 0 0
11:15 pm 23:15 Clear 73 22.7 72 22 96 96 SSE 6 9 30 1016 10 16.0934 0 0
11:35 pm 23:35 Clear 73 22.6 71 21.8 95 95 SE 7 11 30 1016 10 16.0934 0 0
11:55 pm 23:55 Clear 73 22.5 71 21.7 95 95 SE 5 7 30 1016 10 16.0934 0 0

Powered by AerisWeather